• In Hungary
  • List of Countries
  • For 7 days
  • Water Temperature
  • Satellite Maps
  • Weather Map
  • News
  • Weather Widgets
  • user-avatar
    Login

    Hourly Weather Hornostaivka

    Today, 18 June, Monday

    Time Temperature Precipitation Wind Pressure Humidity
    00:00 +22°C° 0 mm 7 mps 747 mmHg 69%
    01:00 +22°C° 0 mm 7 mps 747 mmHg 69%
    02:00 +22°C° 0 mm 6 mps 747 mmHg 68%
    03:00 +22°C° 0 mm 6 mps 747 mmHg 66%
    04:00 +22°C° 0 mm 6 mps 747 mmHg 63%
    05:00 +22°C° 0 mm 6 mps 747 mmHg 61%
    06:00 +22°C° 0 mm 6 mps 747 mmHg 58%
    07:00 +22°C° 0 mm 6 mps 747 mmHg 55%
    08:00 +22°C° 0 mm 6 mps 747 mmHg 52%
    09:00 +23°C° 0 mm 7 mps 747 mmHg 51%
    10:00 +24°C° 0 mm 7 mps 747 mmHg 50%
    11:00 +26°C° 0 mm 8 mps 747 mmHg 48%
    12:00 +27°C° 0 mm 8 mps 747 mmHg 49%
    13:00 +27°C° 0 mm 7 mps 747 mmHg 49%
    14:00 +27°C° 0 mm 7 mps 747 mmHg 49%
    15:00 +27°C° 0 mm 7 mps 747 mmHg 50%
    16:00 +27°C° 0 mm 7 mps 747 mmHg 51%
    17:00 +26°C° 0 mm 6 mps 747 mmHg 53%
    18:00 +24°C° 0 mm 6 mps 747 mmHg 57%
    19:00 +24°C° 0 mm 7 mps 747 mmHg 61%
    20:00 +23°C° 0 mm 7 mps 748 mmHg 65%
    21:00 +23°C° 0 mm 6 mps 748 mmHg 65%
    22:00 +22°C° 0 mm 6 mps 748 mmHg 64%
    23:00 +22°C° 0 mm 6 mps 748 mmHg 64%

    Tomorrow, 19 June, Tuesday

    Time Temperature Precipitation Wind Pressure Humidity
    00:00 +22°C° 0 mm 6 mps 748 mmHg 63%
    01:00 +22°C° 0 mm 6 mps 748 mmHg 63%
    02:00 +22°C° 0 mm 7 mps 748 mmHg 62%
    03:00 +22°C° 0 mm 7 mps 749 mmHg 63%
    04:00 +22°C° 0 mm 7 mps 749 mmHg 63%
    05:00 +22°C° 0 mm 7 mps 749 mmHg 64%
    06:00 +23°C° 0 mm 7 mps 749 mmHg 59%
    07:00 +24°C° 0 mm 7 mps 750 mmHg 54%
    08:00 +26°C° 0 mm 8 mps 750 mmHg 48%
    09:00 +27°C° 0 mm 7 mps 750 mmHg 46%
    10:00 +28°C° 0 mm 7 mps 750 mmHg 43%
    11:00 +28°C° 0 mm 7 mps 750 mmHg 41%
    12:00 +29°C° 0 mm 7 mps 750 mmHg 40%
    13:00 +29°C° 0 mm 7 mps 750 mmHg 40%
    14:00 +29°C° 0 mm 7 mps 750 mmHg 40%
    15:00 +29°C° 0 mm 7 mps 750 mmHg 41%
    16:00 +29°C° 0 mm 7 mps 750 mmHg 41%
    17:00 +28°C° 0 mm 7 mps 750 mmHg 42%
    18:00 +27°C° 0 mm 7 mps 750 mmHg 46%
    19:00 +26°C° 0 mm 7 mps 750 mmHg 49%
    20:00 +24°C° 0 mm 7 mps 750 mmHg 53%
    21:00 +24°C° 0 mm 6 mps 751 mmHg 55%
    22:00 +23°C° 0 mm 6 mps 751 mmHg 58%
    23:00 +23°C° 0 mm 6 mps 751 mmHg 60%

    Day after tomorrow, 20 June, Wednesday

    Time Temperature Precipitation Wind Pressure Humidity
    00:00 +23°C° 0 mm 6 mps 751 mmHg 62%
    01:00 +23°C° 0 mm 6 mps 751 mmHg 64%
    02:00 +22°C° 0 mm 6 mps 751 mmHg 66%
    03:00 +22°C° 0 mm 6 mps 751 mmHg 65%
    04:00 +22°C° 0 mm 6 mps 752 mmHg 64%
    05:00 +22°C° 0 mm 6 mps 752 mmHg 63%
    06:00 +24°C° 0 mm 6 mps 752 mmHg 58%
    07:00 +26°C° 0 mm 6 mps 752 mmHg 53%
    08:00 +27°C° 0 mm 6 mps 752 mmHg 47%
    09:00 +28°C° 0 mm 6 mps 752 mmHg 44%
    10:00 +29°C° 0 mm 6 mps 752 mmHg 41%
    11:00 +30°C° 0 mm 7 mps 753 mmHg 38%
    12:00 +30°C° 0 mm 7 mps 752 mmHg 38%
    13:00 +30°C° 0 mm 7 mps 752 mmHg 39%
    14:00 +30°C° 0 mm 7 mps 752 mmHg 39%
    15:00 +29°C° 0 mm 6 mps 752 mmHg 40%
    16:00 +29°C° 0 mm 6 mps 752 mmHg 41%
    17:00 +29°C° 0 mm 6 mps 752 mmHg 42%
    18:00 +27°C° 0 mm 6 mps 752 mmHg 48%
    19:00 +26°C° 0 mm 6 mps 752 mmHg 53%
    20:00 +23°C° 0 mm 5 mps 752 mmHg 59%
    21:00 +23°C° 0 mm 5 mps 752 mmHg 60%
    22:00 +23°C° 0 mm 5 mps 752 mmHg 61%
    23:00 +23°C° 0 mm 5 mps 752 mmHg 62%

    21 June, Thursday

    Time Temperature Precipitation Wind Pressure Humidity
    00:00 +23°C° 0 mm 6 mps 752 mmHg 65%
    01:00 +22°C° 0 mm 6 mps 752 mmHg 67%
    02:00 +22°C° 0 mm 6 mps 752 mmHg 69%
    03:00 +22°C° 0 mm 6 mps 751 mmHg 69%
    04:00 +23°C° 0 mm 5 mps 751 mmHg 70%
    05:00 +23°C° 0 mm 5 mps 751 mmHg 70%
    06:00 +25°C° 0 mm 5 mps 751 mmHg 62%
    07:00 +27°C° 0 mm 5 mps 751 mmHg 55%
    08:00 +28°C° 0 mm 5 mps 751 mmHg 47%
    09:00 +29°C° 0 mm 5 mps 751 mmHg 45%
    10:00 +30°C° 0 mm 5 mps 751 mmHg 43%
    11:00 +32°C° 0 mm 5 mps 751 mmHg 40%
    12:00 +32°C° 0 mm 5 mps 750 mmHg 39%
    13:00 +32°C° 0 mm 5 mps 750 mmHg 39%
    14:00 +33°C° 0 mm 5 mps 750 mmHg 38%
    15:00 +32°C° 0 mm 5 mps 750 mmHg 40%
    16:00 +30°C° 0 mm 6 mps 749 mmHg 41%
    17:00 +30°C° 0 mm 6 mps 749 mmHg 43%
    18:00 +28°C° 0.1 mm 6 mps 749 mmHg 49%
    19:00 +26°C° 0.1 mm 6 mps 749 mmHg 56%
    20:00 +25°C° 0.1 mm 5 mps 749 mmHg 62%
    21:00 +25°C° 0 mm 5 mps 749 mmHg 63%
    22:00 +23°C° 0 mm 5 mps 749 mmHg 64%
    23:00 +23°C° 0 mm 4 mps 748 mmHg 65%

    22 June, Friday

    Time Temperature Precipitation Wind Pressure Humidity
    00:00 +23°C° 0 mm 4 mps 748 mmHg 66%
    01:00 +23°C° 0 mm 4 mps 748 mmHg 66%
    02:00 +23°C° 0 mm 4 mps 747 mmHg 67%
    03:00 +23°C° 0 mm 4 mps 747 mmHg 67%
    04:00 +24°C° 0 mm 3 mps 747 mmHg 67%
    05:00 +24°C° 0 mm 3 mps 747 mmHg 67%
    06:00 +25°C° 0 mm 3 mps 747 mmHg 63%
    07:00 +27°C° 0 mm 3 mps 747 mmHg 58%
    08:00 +28°C° 0 mm 3 mps 747 mmHg 54%
    09:00 +29°C° 0 mm 3 mps 747 mmHg 53%
    10:00 +29°C° 0 mm 3 mps 747 mmHg 51%
    11:00 +30°C° 0 mm 3 mps 746 mmHg 50%
    12:00 +30°C° 0 mm 4 mps 746 mmHg 50%
    13:00 +32°C° 0 mm 4 mps 746 mmHg 49%
    14:00 +32°C° 0 mm 4 mps 746 mmHg 49%
    15:00 +30°C° 0 mm 4 mps 746 mmHg 52%
    16:00 +29°C° 0 mm 4 mps 745 mmHg 54%
    17:00 +29°C° 0 mm 5 mps 745 mmHg 57%
    18:00 +28°C° 0 mm 4 mps 745 mmHg 61%
    19:00 +26°C° 0 mm 4 mps 746 mmHg 66%
    20:00 +25°C° 0 mm 4 mps 746 mmHg 70%
    21:00 +25°C° 0 mm 4 mps 746 mmHg 71%
    22:00 +25°C° 0 mm 4 mps 746 mmHg 73%
    23:00 +25°C° 0 mm 4 mps 746 mmHg 75%

    23 June, Saturday

    Time Temperature Precipitation Wind Pressure Humidity
    00:00 +25°C° 0 mm 4 mps 746 mmHg 75%
    01:00 +23°C° 0 mm 4 mps 746 mmHg 74%
    02:00 +24°C° 0 mm 3 mps 746 mmHg 74%
    03:00 +24°C° 0 mm 3 mps 746 mmHg 72%
    04:00 +24°C° 0 mm 3 mps 746 mmHg 70%
    05:00 +24°C° 0 mm 3 mps 746 mmHg 69%
    06:00 +25°C° 0 mm 3 mps 747 mmHg 64%
    07:00 +27°C° 0 mm 3 mps 747 mmHg 60%
    08:00 +28°C° 0 mm 3 mps 747 mmHg 56%
    09:00 +29°C° 0 mm 3 mps 747 mmHg 53%
    10:00 +29°C° 0 mm 3 mps 747 mmHg 50%
    11:00 +30°C° 0 mm 3 mps 747 mmHg 47%
    12:00 +30°C° 0 mm 3 mps 747 mmHg 49%
    13:00 +30°C° 0 mm 3 mps 747 mmHg 51%
    14:00 +29°C° 0 mm 3 mps 747 mmHg 52%
    15:00 +29°C° 0 mm 4 mps 747 mmHg 54%
    16:00 +29°C° 0 mm 4 mps 747 mmHg 57%
    17:00 +28°C° 0 mm 4 mps 747 mmHg 59%
    18:00 +27°C° 0 mm 4 mps 747 mmHg 64%
    19:00 +27°C° 0 mm 4 mps 748 mmHg 68%
    20:00 +26°C° 0 mm 4 mps 748 mmHg 73%
    21:00 +25°C° 0.1 mm 5 mps 748 mmHg 74%
    22:00 +25°C° 0.1 mm 5 mps 748 mmHg 74%
    23:00 +25°C° 0.1 mm 5 mps 748 mmHg 75%
    Show more